www.pogodaiklimat.ru

Погода и климат >> Архив погоды >> Россия >> Чукотка >> Остров Врангеля


АРХИВ ПОГОДЫ на Острове Врангеля

Время (UTC), дата Ветер
(напр.,м/с)
 
Видим.   Явления Облачность Т
(С)
Тd
(С)
f
(%)
Тe
(С)
Тes
(С)
Комфортность P
(гПа)
Po
(гПа)
Тmin
(С)
Tmax
(С)
R
(мм)
R24
(мм)
S
(см)
00 14.03 СВ 4
{7}
20 км ясно -20.6 -24.8 69 -30 -28 1023.2 1020.3
03 14.03 С 6
{8}
20 км ясно -19.9 -24.6 66 -31 -30 опасность
обморожения
1021.7 1018.8
06 14.03 С 10-12
{12}
20 км позёмок 3/0
[Ci fib]
-20.5 -24.7 69 -34 -34 опасность
обморожения
1021.2 1018.3 -19.4
09 14.03 С 10-12
{13}
20 км позёмок 3/0
[Ci fib]
-21.1 -27.0 59 -35 -35 опасность
обморожения
1020.6 1017.7
12 14.03 С 9-11
{13}
20 км позёмок 3/0
[Ci fib]
-21.0 -24.6 73 -34 -34 опасность
обморожения
1019.6 1016.7
15 14.03 С 10-12
{12}
20 км позёмок ясно -20.9 -24.3 74 -35 -35 опасность
обморожения
1018.1 1015.2
18 14.03 С 12-15
{17}
20 км позёмок ясно -21.8 -25.2 74 -37 -37 опасность
обморожения
1017.3 1014.4 -21.9 44
21 14.03 С 11-14
{16}
20 км позёмок ясно -21.0 -25.4 68 -35 -35 опасность
обморожения
1016.6 1013.7
00 15.03 С 13-16
{17}
20 км позёмок ясно -19.9 -26.2 57 -35 -35 опасность
обморожения
1015.8 1012.9
03 15.03 С 14-17
{18}
20 км сильный позёмок ясно -19.9 -26.9 54 -35 -35 опасность
обморожения
1014.7 1011.8
06 15.03 С 13-16
{18}
20 км сильный позёмок ясно -20.5 -27.2 55 -36 -36 опасность
обморожения
1014.9 1012.0 -19.5
09 15.03 С 15-17
{17}
20 км сильный позёмок ясно -21.4 -27.3 59 -38 -38 опасность
обморожения
1014.2 1011.3
12 15.03 С 16-18
{19}
20 км сильный позёмок ясно -20.8 -26.5 60 -37 -37 опасность
обморожения
1013.7 1010.8
15 15.03 С 16-19
{19}
20 км сильный позёмок ясно -19.1 -24.4 63 -35 -35 опасность
обморожения
1012.3 1009.4
18 15.03 С 16-20
{22}
4000 м метель 1/0
[Ac trans]
-20.3 -24.9 67 -37 -37 опасность
обморожения
1011.8 1008.9 -22.1 42
21 15.03 С 17-22
{23}
4000 м метель 9/3 600 м
[Sc Ac lent]
-20.5 -24.5 70 -37 -37 опасность
обморожения
1010.5 1007.6
00 16.03 С 18-25
{25}
2000 м метель 9/3 600 м
[Sc Ac lent]
-20.5 -23.0 80 -38 -38 опасность
обморожения
1009.3 1006.4
03 16.03 С 18-22
{25}
2000 м метель 9/0
[Ac lent]
-21.4 -23.9 80 -39 -39 опасность
обморожения
1008.6 1005.7
06 16.03 С 15-18
{23}
2000 м метель 8/0
[Ac lent]
-21.7 -24.2 80 -38 -38 опасность
обморожения
1009.8 1006.9 -20.1
09 16.03 С 15-18
{19}
2000 м метель 8/0
[Ac lent]
-21.1 -23.6 80 -37 -37 опасность
обморожения
1009.9 1007.0
12 16.03 С 13-16
{18}
2000 м метель 9/0
[Ac lent Ci fib]
-21.0 -23.7 79 -36 -36 опасность
обморожения
1009.7 1006.8
15 16.03 С 13-16
{18}
2000 м метель 10/0
[Ac und]
-21.2 -24.2 77 -37 -37 опасность
обморожения
1009.3 1006.4
18 16.03 СЗ 14-15
{16}
2000 м метель 9/0
[Ac trans]
-21.5 -24.3 78 -38 -38 опасность
обморожения
1008.9 1006.0 -21.7 39
21 16.03 СЗ 10-13
{15}
20 км позёмок 9/0
[Ac trans Ci fib]
-22.1 -25.5 74 -36 -36 опасность
обморожения
1009.2 1006.3 -22.2
00 17.03 С 8-10
{13}
20 км позёмок 9/0
[Ac trans Ci fib]
-20.2 -23.7 74 -33 -32 опасность
обморожения
1008.8 1005.9
03 17.03 С 8-11
{11}
20 км позёмок 10/0
[Ac und]
-20.1 -23.6 74 -33 -32 опасность
обморожения
1007.9 1005.0
06 17.03 СЗ 10-13
{14}
4000 м метель 10/0
[Ac und]
-20.7 -23.7 77 -35 -35 опасность
обморожения
1007.3 1004.5 -19.6
09 17.03 СЗ 10-13
{14}
4000 м метель 10/0
[Ac und]
-21.1 -24.1 77 -35 -35 опасность
обморожения
1006.7 1003.9
12 17.03 СЗ 13-17
{18}
1000 м метель 9/0
[Ac trans Ci fib]
-19.0 -21.6 80 -34 -34 опасность
обморожения
1004.8 1002.0
15 17.03 СЗ 11-14
{19}
20 км сильный позёмок 9/0
[Ac trans Ci fib]
-20.6 -23.4 78 -35 -35 опасность
обморожения
1003.2 1000.4
18 17.03 СЗ 14-22
{27}
500 м слаб. снег {метель} 10/0
[As op]
-20.4 -22.6 82 -36 -36 опасность
обморожения
1000.6 997.8 -21.6 0.0 37
21 17.03 С 22-29
{29}
200 м слаб. снег {метель} 10/0
[As op]
-19.4 -21.7 82 -37 -37 опасность
обморожения
997.2 994.4
00 18.03 СЗ 20-27
{29}
200 м слаб. снег {метель} 10/0
[As op]
-20.1 -22.5 81 -38 -38 опасность
обморожения
995.7 992.9
03 18.03 СЗ 14-19
{27}
500 м слаб. снег {метель} 10/0
[As op]
-19.4 -21.7 82 -35 -35 опасность
обморожения
993.5 990.7
06 18.03 С 15-18
{21}
500 м слаб. снег {метель} 10/0
[As op]
-19.5 -21.6 83 -35 -35 опасность
обморожения
990.9 988.1 -18.1 2
09 18.03 С 12-17
{19}
500 м слаб. снег {метель} 10/0
[As op]
-19.7 -22.0 82 -34 -34 опасность
обморожения
989.3 986.5
12 18.03 СЗ 11-15
{17}
1000 м слаб. снег {метель} 10/0
[As op]
-20.1 -22.6 80 -34 -34 опасность
обморожения
987.8 985.0
15 18.03 З 3
{15}
4000 м слаб. снег {метель} 10/0
[As op]
-19.0 -21.3 82 -26 -26 987.0 984.2
18 18.03 З 4
{6}
4000 м слаб. снег {метель} 10/0
[As op]
-19.0 -21.0 84 -28 -28 987.4 984.6 -20.1 1 40
21 18.03 ЮЗ 2
{6}
4000 м слаб. снег 10/0
[As op]
-19.3 -21.3 84 -25 -25 988.3 985.5
00 19.03 З 4
{5}
4000 м слаб. снег 10/0
[As op]
-19.0 -21.0 84 -28 -27 989.5 986.7
03 19.03 ЮЗ 7
{10}
20 км позёмок {снег} 10/0
[Ac trans Cs]
-18.8 -20.8 84 -30 -30 990.8 988.0
06 19.03 З 9-12
{13}
4000 м слаб. снег {метель} 10/0
[As op]
-19.3 -21.2 85 -32 -32 опасность
обморожения
992.3 989.5 -18.5 0.4
09 19.03 ЮЗ 8-10
{13}
4000 м слаб. снег {метель} 10/3 600 м
[Sc As op]
-20.6 -22.6 84 -33 -33 опасность
обморожения
994.2 991.4
12 19.03 З 6
{12}
4000 м слаб. снег {метель} 10/3 600 м
[Sc As op]
-22.8 -25.0 82 -34 -34 опасность
обморожения
994.6 991.7
15 19.03 ЮЗ 5
{10}
10 км снежные кристаллы {метель} 10/3 600 м
[Sc As op]
-22.8 -25.0 82 -34 -34 опасность
обморожения
995.6 992.7
18 19.03 З 5
{9}
20 км {снег, метель} 8/1 600 м
[Sc Ac trans]
-26.0 -28.7 78 -38 -38 опасность
обморожения
996.9 994.0 -26.3 0.5 40
21 19.03 З 5
{8}
4000 м слаб. снег 10/6 300 м
[Sc As op]
-23.5 -26.0 80 -34 -34 опасность
обморожения
998.1 995.2
00 20.03 З 7
{10}
4000 м слаб. снег {метель} 10/4 600 м
[Sc As op]
-22.2 -24.6 81 -35 -34 опасность
обморожения
999.3 996.5
03 20.03 З 9-10
{12}
4000 м слаб. снег {метель} 10/4 600 м
[Sc As op]
-22.7 -25.2 80 -37 -37 опасность
обморожения
1001.2 998.3
06 20.03 З 10-11
{13}
4000 м слаб. снег {метель} 10/5 600 м
[Sc As op]
-23.1 -25.6 80 -38 -38 опасность
обморожения
1003.7 1000.8 -22.1 0.2
09 20.03 ЮЗ 9-10
{13}
4000 м слаб. снег {метель} 10/3 600 м
[Sc As op]
-24.0 -26.5 80 -38 -38 опасность
обморожения
1007.4 1004.5
12 20.03 ЮЗ 7
{13}
20 км позёмок {снег} 8/3 600 м
[Sc Ac trans]
-25.0 -27.6 79 -38 -38 опасность
обморожения
1010.8 1007.9
15 20.03 З 7
{10}
20 км позёмок 8/3 600 м
[Sc Ac trans]
-24.8 -27.4 79 -38 -38 опасность
обморожения
1013.5 1010.6
18 20.03 З 3
{9}
20 км {метель} 10/5 600 м
[Sc Ac und]
-24.0 -26.6 79 -32 -32 опасность
обморожения
1015.7 1012.8 -25.4 0.0 42

 

Местоположение метеостанции Остров Врангеля (Чукотка, Россия): широта 70.98 долгота -178.00 высота над уровнем моря 21 м.

В архиве по умолчанию представлена погода на Острове Врангеля за последнюю неделю. Архивные данные за месяц целиком и за предыдущие месяцы, начиная с января 2011 года, Вы можете получить, выбрав интересующий диапазон дат из раскрывающегося списка и нажав кнопку "Ввод!".


*Определитесь, кто Вы:
робот инопланетянин человек

Внимание! Время в таблицах - всемирное. Для получения местного времени необходимо прибавить поправку, которая равна 12 ч.

Смотрите также архив погоды в соседних городах и на ближайших метеорологических станциях:

Погода на Мысе Шмидта (Чукотка, Россия) (238 км)
Погода на Мысе Биллингс (Чукотка, Россия) (265 км)
Погода в Паляваам-Глубокой (Чукотка, Россия) (364 км)
Погода на Мысе Ванкарем (Чукотка, Россия) (369 км)
Погода в Комсомольской (Чукотка, Россия) (404 км)
Погода в Майской (Чукотка, Россия) (423 км)
Погода в Валькаркае (Чукотка, Россия) (423 км)
Погода на 21 км (Чукотка, Россия) (444 км)
Погода в Певеке (Чукотка, Россия) (463 км)
Погода в Чауне (Чукотка, Россия) (489 км)

Пояснения к столбцам:

Ветер - указаны скорость ветра в м/с - средняя за 10 мин, порывы в срок и между сроками (в фигурных скобках) и направление, откуда дует ветер: С - северный, СВ - северо-восточный, В - восточный, ЮВ - юго-восточный, Ю - южный, ЮЗ - юго-западный, З - западный, СЗ - северо-западный.
Видимость - горизонтальная дальность видимости в метрах или километрах. При видимости от 1 до 10 км при отсутствии осадков обычно наблюдается дымка, при ухудшении видимости до 1 км и менее - туман. В сухую погоду видимость может ухудшаться дымом, пылью или мглою.
Явления - указаны атмосферные явления, наблюдавшиеся в срок или в последний час перед сроком; фигурными скобками обозначены явления, наблюдавшиеся между сроками (за 1-3 часа до срока); квадратными скобками обозначены град или гололедные отложения с указанием их диаметра в мм.
Облачность - указаны через наклонную черту общая и нижняя облачность в баллах и высота нижней границы облаков в метрах; квадратными скобками обозначены формы облаков: Ci - перистые, Cs - перисто-слоистые, Cc - перисто-кучевые, Ac - высококучевые, As - высокослоистые, Sc - слоисто-кучевые, Ns - слоисто-дождевые, Cu - кучевые, Cb - кучево-дождевые. Подробнее классификацию облаков см. в Атласе облаков (PDF).
T - Температура воздуха - температура, измеренная на высоте 2 м над землей.
Td - Температура точки росы - температура, при понижении до которой содержащийся в воздухе водяной пар достигнет насыщения.
f - Относительная влажность воздуха - влажноcть воздуха, измеренная на высоте 2 м над землей.
Te - Эффективная температура - температура, которую ощущает одетый по сезону человек в тени. Характеристика душности погоды. При расчете учитывается влияние влажности воздуха и скорости ветра на теплоощущения человека.
Tes - Эффективная температура на солнце - температура, которую ощущает человек, с поправкой на солнечный нагрев. Характеристика знойности погоды. Зависит от высоты солнца над горизонтом, облачности и скорости ветра. Ночью, в пасмурную погоду, а также при ветре 12 м/с и более поправка равна нулю.
P - Атмосферное давление - приведенное к уровню моря атмосферное давление.
Po - Атмосферное давление - измеренное на уровне метеостанции атмосферное давление.
Tmin - Минимальная температура - минимум температуры воздуха на высоте 2 м над землей.
Tmax - Максимальная температура - максимум температуры воздуха на высоте 2 м над землей.
R - Количество осадков - Количество выпавших осадков за период времени, мм. При наведении курсора мыши на число - период времени, за который выпало указанное количество осадков.
R24 - Количество осадков - Количество выпавших осадков за 24 часа, мм.
S - Снежный покров - Высота снежного покрова, см. При наведении курсора мыши на число - состояние снежного покрова и степень покрытия местности в баллах.